Flag for U.S.A. Weather past 2 weeks in Columbia, South Carolina, U.S.A.

Now
71 °F

Clear.


Feels Like: 72 °F
Forecast: 64 / 85 °F
Wind: No wind

Location: Columbia Owens Downtown Airport

Current Time: Oct 1, 2014 at 10:26:30 PM

Latest Report: Oct 1, 2014 at 9:53 PM


Visibility: 10 mi

Pressure: 30.01 "Hg

Humidity: 78%

Dew point: 64 °F

Location of ColumbiaLocation

Historic Weather in Columbia — Graph

°F

Columbia temperature yesterday

Maximum temperature yesterday: 83 °F (at 1:53 PM)
Minimum temperature yesterday: 62 °F (at 7:53 AM)
Average temperature yesterday: 72 °F

Past Weeks' High & Low Weather Summary

 TemperatureHumidityPressure
High89 °F (Sep 21, 3:53 PM)94% (Sep 25, 5:53 AM)30.28 "Hg (Sep 25, 5:53 AM)
Low57 °F (Sep 24, 1:53 AM)39% (Sep 21, 4:53 PM)29.85 "Hg (Sep 30, 4:53 PM)
Average71 °F75%30.06 "Hg
* Reported Sep 16 8:53 PM — Oct 1 8:53 PM, Columbia, Weather by CustomWeather, © 2014

Note: Actual official high and low records may vary slightly from our data, if they occured in-between our weather recording intervals... More about our weather records

Advertising

Columbia weather history for previous 24 hours

 ConditionsComfort  
Time TempWeatherWind HumidityBarometerVisibility
8:53 PM
Oct 1
75 °FPassing clouds.No wind66%30.00 "Hg10 mi
7:53 PM76 °FPartly sunny.No wind67%29.98 "Hg10 mi
6:53 PM79 °FPartly sunny.No wind60%29.97 "Hg10 mi
5:53 PM82 °FSunny.No wind51%29.96 "Hg10 mi
4:53 PM84 °FScattered clouds.3 mph46%29.96 "Hg10 mi
3:53 PM85 °FSunny.No wind40%29.96 "Hg10 mi
2:53 PM83 °FSunny.No wind46%29.96 "Hg10 mi
1:53 PM84 °FPassing clouds.3 mph43%29.98 "Hg10 mi
12:53 PM83 °FPassing clouds.No wind50%30.00 "Hg10 mi
11:53 AM82 °FSunny.3 mph53%30.01 "Hg10 mi
10:53 AM79 °FSunny.3 mph58%30.02 "Hg10 mi
9:53 AM72 °FSunny.No wind76%30.01 "Hg10 mi
8:53 AM67 °FSunny.No wind85%29.99 "Hg9 mi
7:53 AM62 °FClear.No wind90%29.97 "Hg8 mi
6:53 AM61 °FClear.No wind93%29.95 "Hg8 mi
5:53 AM62 °FClear.No wind90%29.93 "Hg9 mi
4:53 AM62 °FClear.No wind93%29.92 "Hg8 mi
3:53 AM63 °FClear.No wind90%29.91 "Hg8 mi
2:53 AM64 °FClear.No wind90%29.91 "Hg9 mi
1:53 AM64 °FClear.No wind90%29.92 "Hg10 mi
12:53 AM65 °FClear.No wind91%29.92 "Hg10 mi
11:53 PM
Sep 30
66 °FClear.No wind90%29.92 "Hg10 mi
10:53 PM67 °FClear.No wind87%29.91 "Hg10 mi
Weather by CustomWeather, © 2014

See weather overviewHow to use our weather pages